^^
Station Historical Data
 
Daily Summary for January 19, 2020 Units:  English    Metric   Both
« Previous Day
Next Day »
Daily Weekly Monthly Yearly Custom
  Current: High: Low: Average:
Temperature: -11.6 °F -9.3 °F -11.6 °F -10.4 °F
Dew Point: -17.3 °F -15.6 °F -17.3 °F -16.5 °F
Humidity: 75% 75% 73% 74%
Wind Speed: 7mph 19mph 4mph 12mph
Wind Gust: 12mph 25mph - -
WindWNW - - WNW
Pressure: 30.70 in 30.70 in 30.61 in -
Precipitation: 0 in      
Historical Graphs
 
 
Tabular Data for January 19, 2020
Time Temperature Dew Point Pressure Wind Wind Speed Wind Gust Humidity Rainfall Rate (Hourly) solar Conditions
00:00 -9.3 °F -15.6 °F 30.61 in NW 13 mph 23 mph 73% 0 in 0.00 W/m2
00:05 -9.3 °F -15.6 °F 30.62 in WNW 15 mph 23 mph 73% 0 in 0.00 W/m2
00:10 -9.3 °F -15.6 °F 30.62 in WNW 14 mph 23 mph 73% 0 in 0.00 W/m2
00:15 -9.4 °F -15.7 °F 30.62 in NW 17 mph 23 mph 73% 0 in 0.00 W/m2
00:20 -9.4 °F -15.7 °F 30.62 in WNW 10 mph 23 mph 73% 0 in 0.00 W/m2
00:25 -9.5 °F -15.8 °F 30.62 in NW 16 mph 25 mph 73% 0 in 0.00 W/m2
00:30 -9.6 °F -15.9 °F 30.63 in WNW 15 mph 25 mph 73% 0 in 0.00 W/m2
00:35 -9.7 °F -16 °F 30.63 in WNW 19 mph 25 mph 73% 0 in 0.00 W/m2
00:40 -9.7 °F -16 °F 30.63 in WNW 14 mph 25 mph 73% 0 in 0.00 W/m2
00:45 -9.8 °F -16.1 °F 30.63 in WNW 13 mph 20 mph 73% 0 in 0.00 W/m2
00:50 -9.8 °F -16.1 °F 30.63 in WNW 18 mph 20 mph 73% 0 in 0.00 W/m2
00:55 -9.9 °F -16.2 °F 30.63 in WNW 12 mph 22 mph 73% 0 in 0.00 W/m2
01:00 -9.9 °F -15.9 °F 30.63 in NW 18 mph 22 mph 74% 0 in 0.00 W/m2
01:05 -9.9 °F -15.9 °F 30.63 in NW 14 mph 22 mph 74% 0 in 0.00 W/m2
01:10 -10 °F -16 °F 30.63 in NW 14 mph 24 mph 74% 0 in 0.00 W/m2
01:15 -10 °F -16 °F 30.64 in WNW 16 mph 24 mph 74% 0 in 0.00 W/m2
01:20 -10 °F -16.3 °F 30.64 in WNW 8 mph 24 mph 73% 0 in 0.00 W/m2
01:25 -10.2 °F -16.5 °F 30.64 in NW 13 mph 24 mph 73% 0 in 0.00 W/m2
01:30 -10.1 °F -16.4 °F 30.64 in NW 16 mph 22 mph 73% 0 in 0.00 W/m2
01:35 -10.2 °F -16.5 °F 30.64 in WNW 12 mph 22 mph 73% 0 in 0.00 W/m2
01:40 -10.3 °F -16.3 °F 30.64 in WNW 14 mph 19 mph 74% 0 in 0.00 W/m2
01:45 -10.3 °F -16.6 °F 30.64 in WNW 13 mph 21 mph 73% 0 in 0.00 W/m2
01:50 -10.2 °F -16.5 °F 30.65 in WNW 11 mph 21 mph 73% 0 in 0.00 W/m2
01:55 -10.3 °F -16.6 °F 30.65 in West 9 mph 21 mph 73% 0 in 0.00 W/m2
02:00 -10.4 °F -16.4 °F 30.65 in WNW 14 mph 22 mph 74% 0 in 0.00 W/m2
02:05 -10.4 °F -16.4 °F 30.65 in WNW 15 mph 22 mph 74% 0 in 0.00 W/m2
02:10 -10.4 °F -16.4 °F 30.65 in WNW 16 mph 22 mph 74% 0 in 0.00 W/m2
02:15 -10.4 °F -16.4 °F 30.66 in WNW 11 mph 22 mph 74% 0 in 0.00 W/m2
02:20 -10.5 °F -16.5 °F 30.66 in WNW 13 mph 20 mph 74% 0 in 0.00 W/m2
02:25 -10.6 °F -16.6 °F 30.66 in WNW 11 mph 20 mph 74% 0 in 0.00 W/m2
02:30 -10.6 °F -16.6 °F 30.66 in West 4 mph 16 mph 74% 0 in 0.00 W/m2
02:35 -10.6 °F -16.6 °F 30.67 in WNW 14 mph 17 mph 74% 0 in 0.00 W/m2
02:40 -10.6 °F -16.6 °F 30.67 in WNW 8 mph 17 mph 74% 0 in 0.00 W/m2
02:45 -10.7 °F -16.7 °F 30.66 in WNW 15 mph 17 mph 74% 0 in 0.00 W/m2
02:50 -10.7 °F -16.7 °F 30.67 in West 8 mph 17 mph 74% 0 in 0.00 W/m2
02:55 -10.6 °F -16.6 °F 30.67 in West 8 mph 17 mph 74% 0 in 0.00 W/m2
03:00 -10.7 °F -16.7 °F 30.67 in WNW 10 mph 18 mph 74% 0 in 0.00 W/m2
03:05 -10.8 °F -16.8 °F 30.67 in WNW 9 mph 18 mph 74% 0 in 0.00 W/m2
03:10 -10.8 °F -16.8 °F 30.68 in West 11 mph 14 mph 74% 0 in 0.00 W/m2
03:15 -10.8 °F -16.8 °F 30.68 in NW 10 mph 15 mph 74% 0 in 0.00 W/m2
03:20 -10.8 °F -16.8 °F 30.68 in NW 6 mph 15 mph 74% 0 in 0.00 W/m2
03:25 -10.8 °F -16.8 °F 30.69 in WNW 10 mph 15 mph 74% 0 in 0.00 W/m2
03:30 -10.8 °F -16.8 °F 30.69 in WNW 15 mph 16 mph 74% 0 in 0.00 W/m2
03:35 -10.8 °F -16.8 °F 30.69 in WNW 15 mph 16 mph 74% 0 in 0.00 W/m2
03:40 -10.7 °F -16.7 °F 30.69 in West 14 mph 16 mph 74% 0 in 0.00 W/m2
03:45 -10.8 °F -16.8 °F 30.69 in WNW 8 mph 16 mph 74% 0 in 0.00 W/m2
03:50 -10.9 °F -16.9 °F 30.69 in West 12 mph 16 mph 74% 0 in 0.00 W/m2
03:55 -10.8 °F -16.8 °F 30.70 in West 13 mph 15 mph 74% 0 in 0.00 W/m2
04:00 -11 °F -17 °F 30.69 in West 11 mph 15 mph 74% 0 in 0.00 W/m2
04:05 -11.1 °F -16.8 °F 30.69 in WNW 12 mph 15 mph 75% 0 in 0.00 W/m2
04:10 -11.2 °F -16.9 °F 30.70 in WNW 9 mph 15 mph 75% 0 in 0.00 W/m2
04:15 -11.2 °F -16.9 °F 30.70 in WNW 8 mph 15 mph 75% 0 in 0.00 W/m2
04:20 -11.1 °F -16.8 °F 30.69 in WNW 11 mph 14 mph 75% 0 in 0.00 W/m2
04:25 -11.2 °F -16.9 °F 30.69 in WNW 10 mph 14 mph 75% 0 in 0.00 W/m2
04:30 -11.3 °F -17.3 °F 30.70 in NW 8 mph 14 mph 74% 0 in 0.00 W/m2
04:35 -11.4 °F -17.1 °F 30.69 in WNW 7 mph 14 mph 75% 0 in 0.00 W/m2
04:40 -11.5 °F -17.2 °F 30.70 in NW 10 mph 11 mph 75% 0 in 0.00 W/m2
04:45 -11.6 °F -17.3 °F 30.70 in WNW 7 mph 12 mph 75% 0 in 0.00 W/m2
Bismarck, North Dakota, USA
Compliments of Weather Underground - 2 mb